Location: México DF
(19.4326°N, 99.1332°W)
Time: 22:40:00
(UTC+00:00)

ISS - Pass Details

Date: 08 October 2024
Orbit: 412 x 423 km, 51.6° (Epoch: 10 October)

Event Time Altitude Azimuth Distance (km) Brightness Sun altitude
Rises 00:13:12 0° 318° (NW) 2,349 0.6 0.6°
Maximum altitude 00:18:37 66° 233° (SW) 458 -3.2 -0.7°
Drops below altitude 10° 00:21:56 10° 150° (SSE) 1,491 -1.2 -1.5°
Sets 00:24:03 0° 147° (SSE) 2,355 -0.2 -2.0°
